TimeCST,TemperatureF,Dew PointF,Humidity,Sea Level PressureIn,VisibilityMPH,Wind Direction,Wind SpeedMPH,Gust SpeedMPH,PrecipitationIn,Events,Conditions,WindDirDegrees,DateUTC
12:53 AM,48.0,45.0,89,30.19,10.0,Calm,Calm,-,N/A,,Clear,0,2012-12-01 06:53:00
1:53 AM,48.9,46.9,93,30.20,8.0,Calm,Calm,-,N/A,,Clear,0,2012-12-01 07:53:00
2:53 AM,48.9,46.9,93,30.19,9.0,Calm,Calm,-,N/A,,Clear,0,2012-12-01 08:53:00
3:53 AM,50.0,46.0,86,30.19,8.0,Calm,Calm,-,N/A,,Mostly Cloudy,0,2012-12-01 09:53:00
4:53 AM,52.0,48.9,89,30.20,7.0,Calm,Calm,-,N/A,,Overcast,0,2012-12-01 10:53:00
5:53 AM,53.6,50.0,88,30.20,10.0,SE,4.6,-,N/A,,Overcast,130,2012-12-01 11:53:00
6:53 AM,55.0,50.0,83,30.22,10.0,SSE,3.5,-,N/A,,Overcast,160,2012-12-01 12:53:00
7:53 AM,55.9,51.1,84,30.22,9.0,SE,3.5,-,N/A,,Overcast,140,2012-12-01 13:53:00
8:53 AM,59.0,53.1,81,30.24,9.0,SSE,3.5,-,N/A,,Overcast,160,2012-12-01 14:53:00
9:53 AM,61.0,54.0,78,30.24,9.0,SSE,4.6,-,0.00,,Overcast,160,2012-12-01 15:53:00
10:53 AM,70.0,55.9,61,30.22,10.0,South,12.7,17.3,N/A,,Mostly Cloudy,190,2012-12-01 16:53:00
11:53 AM,72.0,55.0,55,30.18,10.0,South,8.1,-,N/A,,Partly Cloudy,170,2012-12-01 17:53:00
12:53 PM,72.0,55.0,55,30.16,10.0,Variable,5.8,-,N/A,,Clear,0,2012-12-01 18:53:00
1:53 PM,75.0,55.0,50,30.14,10.0,South,6.9,-,N/A,,Clear,170,2012-12-01 19:53:00
2:53 PM,75.9,55.0,48,30.12,10.0,SSE,8.1,-,N/A,,Clear,160,2012-12-01 20:53:00
3:53 PM,75.9,55.0,48,30.11,10.0,Variable,5.8,-,N/A,,Clear,0,2012-12-01 21:53:00
4:53 PM,73.0,55.0,53,30.12,10.0,SSE,5.8,-,N/A,,Clear,150,2012-12-01 22:53:00
5:53 PM,70.0,55.0,59,30.12,10.0,SE,4.6,-,N/A,,Clear,140,2012-12-01 23:53:00
6:53 PM,69.1,55.0,61,30.13,10.0,SSE,5.8,-,N/A,,Clear,150,2012-12-02 00:53:00
7:53 PM,66.9,55.9,68,30.13,10.0,South,8.1,-,N/A,,Clear,170,2012-12-02 01:53:00
8:53 PM,64.9,55.9,73,30.14,10.0,SSE,5.8,-,N/A,,Clear,160,2012-12-02 02:53:00
9:53 PM,64.0,55.9,75,30.14,10.0,SSE,8.1,-,N/A,,Clear,160,2012-12-02 03:53:00
10:53 PM,64.0,55.9,75,30.15,10.0,South,9.2,-,N/A,,Clear,170,2012-12-02 04:53:00
11:53 PM,63.0,55.9,78,30.16,10.0,South,6.9,-,N/A,,Clear,180,2012-12-02 05:53:00